SWA2450 KBWI-KPWM

Flight info

Callsign SWA2450
Flight time 1h 10m
Altitude 39000
Route DUKPN1 BROSS Q419 RBV Q22 LLUND DCT BDR SCOGS3
Aircraft B737/M-VGDW/C

Departure

Time 2026-04-20 18:48
Airport Baltimore/Washington International Thurgood Marshall Airport (KBWI)

Arrival

Time 2026-04-20 19:59
Airport Portland International Jetport (KPWM)
Time Latitude Longitude Altitude Speed Heading
2026-04-20 18:27 39.17862 -76.67155 155 ft 0 kts 54°
2026-04-20 18:41 39.17860 -76.67157 155 ft 3 kts 54°
2026-04-20 18:41 39.17846 -76.67185 155 ft 4 kts 59°
2026-04-20 18:41 39.17833 -76.67216 155 ft 4 kts 68°
2026-04-20 18:41 39.17827 -76.67248 154 ft 4 kts 99°
2026-04-20 18:42 39.17833 -76.67266 154 ft 0 kts 144°
2026-04-20 18:44 39.17817 -76.67251 154 ft 7 kts 143°
2026-04-20 18:45 39.17748 -76.67186 156 ft 17 kts 143°
2026-04-20 18:45 39.17632 -76.67076 155 ft 23 kts 144°
2026-04-20 18:45 39.17543 -76.66945 155 ft 18 kts 109°
2026-04-20 18:45 39.17530 -76.66785 155 ft 18 kts 95°
2026-04-20 18:46 39.17521 -76.66629 153 ft 17 kts 94°
2026-04-20 18:46 39.17562 -76.66526 154 ft 13 kts 46°
2026-04-20 18:46 39.17550 -76.66424 153 ft 13 kts 124°
2026-04-20 18:46 39.17499 -76.66314 149 ft 17 kts 124°
2026-04-20 18:47 39.17454 -76.66159 148 ft 21 kts 94°
2026-04-20 18:47 39.17443 -76.65958 145 ft 25 kts 93°
2026-04-20 18:47 39.17429 -76.65719 140 ft 28 kts 96°
2026-04-20 18:47 39.17400 -76.65538 140 ft 17 kts 136°
2026-04-20 18:48 39.17292 -76.65548 140 ft 17 kts 228°
2026-04-20 18:48 39.17289 -76.65718 141 ft 39 kts 275°
2026-04-20 18:48 39.17339 -76.66508 176 ft 132 kts 277°
2026-04-20 18:48 39.17384 -76.67878 880 ft 165 kts 273°
2026-04-20 18:49 39.17403 -76.69360 2273 ft 160 kts 281°
2026-04-20 18:49 39.17530 -76.70870 3219 ft 184 kts 278°
2026-04-20 18:49 39.17658 -76.72665 3688 ft 219 kts 276°
2026-04-20 18:49 39.17339 -76.74621 4680 ft 232 kts 244°
2026-04-20 18:50 39.16195 -76.76143 5860 ft 247 kts 214°
2026-04-20 18:50 39.14528 -76.76827 6839 ft 260 kts 188°
2026-04-20 18:50 39.12765 -76.76346 7036 ft 266 kts 153°
2026-04-20 18:50 39.11399 -76.74718 7045 ft 271 kts 124°
2026-04-20 18:51 39.10433 -76.72717 7493 ft 266 kts 121°
2026-04-20 18:51 39.09441 -76.70641 8042 ft 271 kts 122°
2026-04-20 18:51 39.08465 -76.68495 8599 ft 289 kts 112°
2026-04-20 18:51 39.08125 -76.65908 9171 ft 300 kts 88°
2026-04-20 18:52 39.08234 -76.63222 9808 ft 301 kts 84°
2026-04-20 18:52 39.08352 -76.60515 10460 ft 305 kts 85°
2026-04-20 18:52 39.08481 -76.57772 11104 ft 309 kts 85°
2026-04-20 18:52 39.08613 -76.55000 11757 ft 312 kts 85°
2026-04-20 18:53 39.08731 -76.52233 12408 ft 315 kts 85°
2026-04-20 18:53 39.08839 -76.49412 13188 ft 316 kts 85°
2026-04-20 18:53 39.08952 -76.46539 13868 ft 325 kts 85°
2026-04-20 18:53 39.09223 -76.43631 14017 ft 332 kts 76°
2026-04-20 18:54 39.09741 -76.40638 14406 ft 350 kts 73°
2026-04-20 18:54 39.10334 -76.37554 15244 ft 359 kts 73°
2026-04-20 18:54 39.10940 -76.34404 16167 ft 366 kts 73°
2026-04-20 18:54 39.11544 -76.31186 17067 ft 374 kts 74°
2026-04-20 18:55 39.12146 -76.27896 17947 ft 382 kts 74°
2026-04-20 18:55 39.12751 -76.24530 18796 ft 389 kts 74°
2026-04-20 18:55 39.13357 -76.21107 19581 ft 396 kts 75°
2026-04-20 18:55 39.13970 -76.17622 20424 ft 402 kts 75°
2026-04-20 18:56 39.14589 -76.14084 21233 ft 408 kts 75°
2026-04-20 18:56 39.15708 -76.07378 22353 ft 429 kts 78°
2026-04-20 18:56 39.16354 -76.03610 23135 ft 434 kts 74°
2026-04-20 18:57 39.17106 -75.99803 23926 ft 440 kts 75°
2026-04-20 18:57 39.17791 -75.95928 24617 ft 446 kts 76°
2026-04-20 18:57 39.18580 -75.92124 25632 ft 438 kts 68°
2026-04-20 18:57 39.19806 -75.88548 26335 ft 438 kts 56°
2026-04-20 18:58 39.21590 -75.85340 26784 ft 442 kts 43°
2026-04-20 18:58 39.23848 -75.82645 27339 ft 442 kts 34°
2026-04-20 18:58 39.26227 -75.80103 27967 ft 446 kts 33°
2026-04-20 18:58 39.28639 -75.77559 28538 ft 452 kts 33°
2026-04-20 18:59 39.31117 -75.74982 28856 ft 464 kts 35°
2026-04-20 18:59 39.33547 -75.72185 29394 ft 469 kts 35°
2026-04-20 18:59 39.36038 -75.69451 30026 ft 471 kts 33°
2026-04-20 18:59 39.38557 -75.66718 30612 ft 476 kts 40°
2026-04-20 19:00 39.40950 -75.63786 31225 ft 471 kts 34°
2026-04-20 19:00 39.43506 -75.61111 31655 ft 473 kts 33°
2026-04-20 19:00 39.46102 -75.58462 32012 ft 478 kts 34°
2026-04-20 19:00 39.48684 -75.55703 32430 ft 482 kts 35°
2026-04-20 19:01 39.51246 -75.52881 32882 ft 484 kts 35°
2026-04-20 19:01 39.53769 -75.50069 33333 ft 485 kts 36°
2026-04-20 19:01 39.56326 -75.47219 33906 ft 483 kts 35°
2026-04-20 19:01 39.58870 -75.44399 34471 ft 480 kts 35°
2026-04-20 19:02 39.61406 -75.41598 34871 ft 479 kts 36°
2026-04-20 19:02 39.63953 -75.38791 35145 ft 482 kts 36°
2026-04-20 19:02 39.66516 -75.35965 35430 ft 484 kts 36°
2026-04-20 19:02 39.69085 -75.33125 35797 ft 484 kts 36°
2026-04-20 19:03 39.71647 -75.30285 36193 ft 484 kts 36°
2026-04-20 19:03 39.74206 -75.27445 36548 ft 484 kts 36°
2026-04-20 19:03 39.76770 -75.24599 36856 ft 486 kts 36°
2026-04-20 19:03 39.79319 -75.21711 37185 ft 488 kts 40°
2026-04-20 19:04 39.81715 -75.18560 37528 ft 489 kts 44°
2026-04-20 19:04 39.84017 -75.15311 37885 ft 490 kts 45°
2026-04-20 19:04 39.86296 -75.12003 38196 ft 490 kts 45°
2026-04-20 19:04 39.88570 -75.08682 38494 ft 491 kts 45°
2026-04-20 19:05 39.90846 -75.05369 38794 ft 492 kts 45°
2026-04-20 19:05 39.93139 -75.02051 39002 ft 494 kts 45°
2026-04-20 19:05 39.95443 -74.98737 39210 ft 490 kts 45°
2026-04-20 19:05 39.97734 -74.95450 39203 ft 491 kts 45°
2026-04-20 19:06 40.02334 -74.88861 39224 ft 492 kts 45°
2026-04-20 19:06 40.06948 -74.82238 39231 ft 494 kts 45°
2026-04-20 19:07 40.11578 -74.75574 39220 ft 495 kts 45°
2026-04-20 19:07 40.16176 -74.68937 39219 ft 497 kts 46°
2026-04-20 19:08 40.23134 -74.58867 39213 ft 496 kts 46°
2026-04-20 19:09 40.27756 -74.52158 39212 ft 495 kts 46°
2026-04-20 19:09 40.32361 -74.45460 39225 ft 494 kts 46°
2026-04-20 19:10 40.36949 -74.38773 39216 ft 492 kts 46°
2026-04-20 19:10 40.41513 -74.32104 39205 ft 490 kts 46°
2026-04-20 19:11 40.46057 -74.25448 39220 ft 489 kts 46°
2026-04-20 19:11 40.50602 -74.18774 39239 ft 489 kts 46°
2026-04-20 19:12 40.55149 -74.12132 39224 ft 488 kts 44°
2026-04-20 19:12 40.60255 -74.06292 39221 ft 485 kts 36°
2026-04-20 19:13 40.65545 -74.00778 39248 ft 485 kts 36°
2026-04-20 19:13 40.70768 -73.95214 39232 ft 486 kts 37°
2026-04-20 19:14 40.75995 -73.89537 39228 ft 487 kts 37°
2026-04-20 19:14 40.81233 -73.83829 39221 ft 489 kts 37°
2026-04-20 19:15 40.86290 -73.77807 39206 ft 492 kts 48°
2026-04-20 19:15 40.90133 -73.70334 39215 ft 492 kts 59°
2026-04-20 19:16 40.93589 -73.62500 39194 ft 494 kts 61°
2026-04-20 19:16 40.96719 -73.54413 39234 ft 492 kts 61°
2026-04-20 19:17 41.00484 -73.46809 39210 ft 495 kts 56°
2026-04-20 19:17 41.04167 -73.39100 39190 ft 497 kts 59°
2026-04-20 19:18 41.07697 -73.31212 39194 ft 498 kts 60°
2026-04-20 19:18 41.11225 -73.23293 39191 ft 500 kts 59°
2026-04-20 19:19 41.14783 -73.15359 39192 ft 501 kts 59°
2026-04-20 19:19 41.19069 -73.08100 39196 ft 501 kts 44°
2026-04-20 19:20 41.23969 -73.01602 39197 ft 502 kts 43°
2026-04-20 19:20 41.28936 -72.95071 39174 ft 503 kts 43°
2026-04-20 19:21 41.33873 -72.88459 39215 ft 503 kts 44°
2026-04-20 19:21 41.38782 -72.81805 39204 ft 503 kts 44°
2026-04-20 19:22 41.43688 -72.75124 39189 ft 504 kts 44°
2026-04-20 19:22 41.48562 -72.68474 39190 ft 504 kts 44°
2026-04-20 19:23 41.53457 -72.61785 39189 ft 504 kts 44°
2026-04-20 19:23 41.58355 -72.55079 39188 ft 503 kts 44°
2026-04-20 19:24 41.63234 -72.48384 39181 ft 503 kts 44°
2026-04-20 19:24 41.68110 -72.41676 39208 ft 503 kts 44°
2026-04-20 19:25 41.72983 -72.34957 39183 ft 503 kts 44°
2026-04-20 19:25 41.77851 -72.28230 39184 ft 502 kts 44°
2026-04-20 19:26 41.82713 -72.21494 39169 ft 503 kts 44°
2026-04-20 19:26 41.87577 -72.14742 39184 ft 503 kts 44°
2026-04-20 19:27 41.92439 -72.07975 39184 ft 504 kts 44°
2026-04-20 19:27 41.97304 -72.01189 39179 ft 504 kts 44°
2026-04-20 19:28 42.02156 -71.94407 38605 ft 509 kts 44°
2026-04-20 19:28 42.04611 -71.90969 37990 ft 508 kts 45°
2026-04-20 19:28 42.07052 -71.87544 37381 ft 507 kts 45°
2026-04-20 19:28 42.09494 -71.84115 36789 ft 506 kts 45°
2026-04-20 19:29 42.11926 -71.80697 36179 ft 505 kts 45°
2026-04-20 19:29 42.14350 -71.77286 35531 ft 505 kts 46°
2026-04-20 19:29 42.16769 -71.73877 35083 ft 501 kts 46°
2026-04-20 19:29 42.19173 -71.70485 34542 ft 498 kts 47°
2026-04-20 19:30 42.21559 -71.67116 34035 ft 494 kts 47°
2026-04-20 19:30 42.23899 -71.63807 33490 ft 490 kts 47°
2026-04-20 19:30 42.26270 -71.60449 32980 ft 486 kts 46°
2026-04-20 19:30 42.28560 -71.57203 32506 ft 481 kts 46°
2026-04-20 19:31 42.30855 -71.53946 32014 ft 476 kts 46°
2026-04-20 19:31 42.33127 -71.50718 31578 ft 472 kts 46°
2026-04-20 19:31 42.35382 -71.47511 31118 ft 468 kts 46°
2026-04-20 19:31 42.37615 -71.44331 30662 ft 465 kts 46°
2026-04-20 19:32 42.39831 -71.41173 30172 ft 462 kts 45°
2026-04-20 19:32 42.42029 -71.38036 29653 ft 457 kts 45°
2026-04-20 19:32 42.44207 -71.34925 29126 ft 452 kts 45°
2026-04-20 19:32 42.46352 -71.31857 28653 ft 446 kts 45°
2026-04-20 19:33 42.48471 -71.28824 28187 ft 441 kts 45°
2026-04-20 19:33 42.50568 -71.25819 27697 ft 435 kts 45°
2026-04-20 19:33 42.52636 -71.22853 27257 ft 430 kts 45°
2026-04-20 19:33 42.54682 -71.19915 26777 ft 426 kts 45°
2026-04-20 19:34 42.56704 -71.17009 26323 ft 421 kts 45°
2026-04-20 19:34 42.58705 -71.14129 25858 ft 416 kts 45°
2026-04-20 19:34 42.60681 -71.11283 25404 ft 412 kts 45°
2026-04-20 19:34 42.62637 -71.08462 24955 ft 408 kts 45°
2026-04-20 19:35 42.64573 -71.05669 24521 ft 403 kts 44°
2026-04-20 19:35 42.66458 -71.02945 24091 ft 399 kts 44°
2026-04-20 19:35 42.68352 -71.00207 23608 ft 395 kts 44°
2026-04-20 19:35 42.70223 -70.97499 23081 ft 391 kts 44°
2026-04-20 19:36 42.72059 -70.94839 22619 ft 379 kts 44°
2026-04-20 19:36 42.73835 -70.92262 22194 ft 368 kts 44°
2026-04-20 19:36 42.75568 -70.89747 21787 ft 363 kts 44°
2026-04-20 19:36 42.77287 -70.87250 21320 ft 360 kts 44°
2026-04-20 19:37 42.78420 -70.85605 21034 ft 358 kts 44°
2026-04-20 19:37 42.80115 -70.83141 20623 ft 355 kts 44°
2026-04-20 19:37 42.81822 -70.80658 20182 ft 353 kts 44°
2026-04-20 19:37 42.83472 -70.78254 19773 ft 351 kts 44°
2026-04-20 19:38 42.85140 -70.75822 19352 ft 349 kts 44°
2026-04-20 19:38 42.86790 -70.73414 18934 ft 347 kts 44°
2026-04-20 19:38 42.88433 -70.71015 18524 ft 345 kts 44°
2026-04-20 19:38 42.90071 -70.68620 18051 ft 344 kts 44°
2026-04-20 19:39 42.91695 -70.66243 17606 ft 341 kts 44°
2026-04-20 19:39 42.93309 -70.63879 17188 ft 338 kts 44°
2026-04-20 19:39 42.94905 -70.61540 16799 ft 335 kts 44°
2026-04-20 19:39 42.96488 -70.59218 16377 ft 333 kts 44°
2026-04-20 19:40 42.98058 -70.56913 15978 ft 330 kts 44°
2026-04-20 19:40 42.99617 -70.54621 15565 ft 328 kts 44°
2026-04-20 19:40 43.01168 -70.52341 15151 ft 326 kts 44°
2026-04-20 19:40 43.02711 -70.50070 14747 ft 325 kts 44°
2026-04-20 19:41 43.04225 -70.47840 14354 ft 324 kts 44°
2026-04-20 19:41 43.05756 -70.45582 13946 ft 323 kts 44°
2026-04-20 19:41 43.07276 -70.43339 13499 ft 321 kts 44°
2026-04-20 19:41 43.08790 -70.41102 13092 ft 319 kts 44°
2026-04-20 19:42 43.10291 -70.38882 12697 ft 316 kts 44°
2026-04-20 19:42 43.11779 -70.36682 12306 ft 313 kts 44°
2026-04-20 19:42 43.13253 -70.34500 11906 ft 311 kts 44°
2026-04-20 19:42 43.14716 -70.32336 11508 ft 309 kts 44°
2026-04-20 19:43 43.15679 -70.30911 11250 ft 307 kts 44°
2026-04-20 19:43 43.17859 -70.28452 10762 ft 303 kts 29°
2026-04-20 19:43 43.19665 -70.26943 10426 ft 303 kts 27°
2026-04-20 19:43 43.21373 -70.25513 10379 ft 280 kts 28°
2026-04-20 19:44 43.22960 -70.24148 10223 ft 260 kts 28°
2026-04-20 19:44 43.24430 -70.22866 10076 ft 242 kts 28°
2026-04-20 19:44 43.25804 -70.21675 9951 ft 226 kts 27°
2026-04-20 19:44 43.27098 -70.20563 9756 ft 215 kts 27°
2026-04-20 19:45 43.28350 -70.19489 9480 ft 211 kts 27°
2026-04-20 19:45 43.29588 -70.18424 9150 ft 209 kts 27°
2026-04-20 19:45 43.30813 -70.17369 8846 ft 207 kts 27°
2026-04-20 19:45 43.32025 -70.16325 8529 ft 205 kts 27°
2026-04-20 19:46 43.33243 -70.15339 8233 ft 202 kts 25°
2026-04-20 19:46 43.34463 -70.14383 7921 ft 200 kts 25°
2026-04-20 19:46 43.35660 -70.13445 7718 ft 197 kts 25°
2026-04-20 19:46 43.36846 -70.12515 7522 ft 197 kts 25°
2026-04-20 19:47 43.38041 -70.11576 7334 ft 199 kts 25°
2026-04-20 19:47 43.39236 -70.10636 7129 ft 197 kts 25°
2026-04-20 19:47 43.40418 -70.09703 6933 ft 195 kts 25°
2026-04-20 19:47 43.41594 -70.08775 6743 ft 194 kts 25°
2026-04-20 19:48 43.42753 -70.07858 6568 ft 192 kts 25°
2026-04-20 19:48 43.43897 -70.06953 6397 ft 187 kts 25°
2026-04-20 19:48 43.45018 -70.06064 6211 ft 186 kts 24°
2026-04-20 19:48 43.46137 -70.05178 6019 ft 185 kts 25°
2026-04-20 19:49 43.47250 -70.04295 5848 ft 184 kts 25°
2026-04-20 19:49 43.48360 -70.03415 5659 ft 184 kts 25°
2026-04-20 19:49 43.49464 -70.02539 5484 ft 183 kts 25°
2026-04-20 19:49 43.50566 -70.01665 5308 ft 182 kts 25°
2026-04-20 19:50 43.51662 -70.00794 5136 ft 182 kts 25°
2026-04-20 19:50 43.52753 -69.99928 4953 ft 181 kts 25°
2026-04-20 19:50 43.53844 -69.99062 4772 ft 180 kts 25°
2026-04-20 19:50 43.54928 -69.98201 4595 ft 179 kts 25°
2026-04-20 19:51 43.56007 -69.97344 4420 ft 178 kts 25°
2026-04-20 19:51 43.57085 -69.96521 4238 ft 175 kts 15°
2026-04-20 19:51 43.58216 -69.96568 4092 ft 159 kts 327°
2026-04-20 19:51 43.59030 -69.97530 3958 ft 155 kts 306°
2026-04-20 19:52 43.59630 -69.98732 3816 ft 155 kts 303°
2026-04-20 19:52 43.60232 -70.00007 3660 ft 157 kts 303°
2026-04-20 19:52 43.60831 -70.01276 3494 ft 158 kts 304°
2026-04-20 19:52 43.61432 -70.02522 3344 ft 158 kts 305°
2026-04-20 19:53 43.62034 -70.03780 3188 ft 157 kts 304°
2026-04-20 19:53 43.62575 -70.05062 3022 ft 154 kts 293°
2026-04-20 19:53 43.62798 -70.06523 2888 ft 156 kts 280°
2026-04-20 19:53 43.62924 -70.07947 2727 ft 142 kts 281°
2026-04-20 19:54 43.63022 -70.09226 2638 ft 125 kts 280°
2026-04-20 19:54 43.63104 -70.10388 2483 ft 120 kts 279°
2026-04-20 19:54 43.63184 -70.11551 2376 ft 122 kts 281°
2026-04-20 19:54 43.63273 -70.12709 2249 ft 120 kts 281°
2026-04-20 19:55 43.63340 -70.13857 2136 ft 120 kts 281°
2026-04-20 19:55 43.63412 -70.14993 2027 ft 118 kts 280°
2026-04-20 19:55 43.63486 -70.16120 1909 ft 118 kts 281°
2026-04-20 19:55 43.63561 -70.17259 1786 ft 120 kts 280°
2026-04-20 19:56 43.63636 -70.18397 1714 ft 119 kts 280°
2026-04-20 19:56 43.63710 -70.19520 1598 ft 115 kts 279°
2026-04-20 19:56 43.63791 -70.20586 1460 ft 109 kts 281°
2026-04-20 19:56 43.63855 -70.21634 1328 ft 111 kts 280°
2026-04-20 19:57 43.63918 -70.22709 1165 ft 113 kts 279°
2026-04-20 19:57 43.63961 -70.23794 961 ft 113 kts 278°
2026-04-20 19:57 43.64009 -70.24855 740 ft 108 kts 279°
2026-04-20 19:57 43.64100 -70.25860 635 ft 106 kts 282°
2026-04-20 19:58 43.64247 -70.26878 552 ft 109 kts 283°
2026-04-20 19:58 43.64320 -70.27916 467 ft 112 kts 275°
2026-04-20 19:58 43.64344 -70.29005 295 ft 115 kts 275°
2026-04-20 19:58 43.64412 -70.30081 87 ft 113 kts 276°
2026-04-20 19:59 43.64476 -70.31043 60 ft 76 kts 276°
2026-04-20 19:59 43.64566 -70.31332 79 ft 23 kts
2026-04-20 19:59 43.64632 -70.31191 68 ft 12 kts 48°
2026-04-20 19:59 43.64674 -70.31169 64 ft 0 kts 14°